Zurück zum Katalog

COSMOS 2251 DEB

AktivLEO
NORAD 34790·DEBRIS·🇷🇺 Russia

Gestartet Jun 16, 1993 von Plesetsk Cosmodrome

Loading…

Nächste Überflüge (nächste 24 Stunden)

TLE

AktuellSource: Space-Track

Epoche: Sep 14, 2026, 00:13 UTC

1 34790U 93036AAT 26257.00934907  .00000864  00000-0  35798-3 0  9991
2 34790  74.0515 107.7215 0099166 103.4306  46.3435 14.25373681904949

Verfolge COSMOS 2251 DEB in Echtzeit mit AllMySat

Download on the App Store